Regional Weather Roundup
Issued by NWS Sioux Falls, SD

Home | Current Version | Previous Version | Text Only | Print | Product List | Glossary On
Versions: 1 2 3 4 5 6 7 8 9 10 11 12 13 14 15 16 17 18 19 20 21 22 23 24 25 26 27 28 29 30 31 32 33 34 35 36 37 38 39 40 41 42 43 44 45 46 47 48 49 50
000
ASUS43 KFSD 052002
RWRFSD

WEATHER ROUNDUP FOR SE SOUTH DAKOTA/SW MINNESOTA/NW IOWA
NATIONAL WEATHER SERVICE SIOUX FALLS SD
300 PM CDT SUN JUL 05 2015

NOTE: "FAIR" INDICATES FEW OR NO CLOUDS BELOW 12,000 FEET WITH NO
SIGNIFICANT WEATHER AND OR OBSTRUCTIONS TO VISIBILITY.


SDZ038>040-050-052>070-052100-
SOUTHEAST SOUTH DAKOTA

CITY           SKY/WX    TMP DP  RH WIND       PRES   REMARKS
BROOKINGS      SUNNY     88  68  51 SW10      29.82S
CHAMBERLAIN    MOSUNNY   88  73  61 E5        29.76S HX  95
HURON          MOSUNNY   89  72  56 VRB6      29.75S HX  96
MADISON        FAIR      86  68  54 S12       29.82R
MITCHELL       MOSUNNY   91  70  49 S13G18    29.76F HX  96
SIOUX FALLS    MOSUNNY   89  68  49 S16G25    29.80S
WINNER         FAIR      94  65  38 S8        29.75S HX  96
YANKTON        SUNNY     88  73  62 S12       29.76S HX  96
$$

MNZ071-072-080-081-089-090-097-098-052100-
SOUTHWEST MINNESOTA

CITY           SKY/WX    TMP DP  RH WIND       PRES   REMARKS
FAIRMONT       PTSUNNY   82  68  61 S16       29.87S
JACKSON        PTSUNNY   88  70  55 S15G22    29.88S
LUVERNE        SUNNY     86  66  51 S13       29.84S
MARSHALL       MOSUNNY   88  66  48 S12         N/A
MONTEVIDEO     MOSUNNY   90  68  48 SW12G18   29.80S
PIPESTONE      SUNNY     84  66  54 S10       29.84S
REDWOOD FALLS  MOSUNNY   88  67  49 S13       29.82F
TRACY          PTSUNNY   88  67  48 S10       29.84S
WINDOM         PTSUNNY   86  66  51 S13G18    29.86S
WORTHINGTON    MOSUNNY   88  66  48 S20G26    29.86R
$$

IAZ001>003-012>014-020>022-031-032-NEZ013-014-SDZ071-052100-
NORTHWEST IOWA

CITY           SKY/WX    TMP DP  RH WIND       PRES   REMARKS
DENISON        MOSUNNY   84  73  70 S13G28    29.86F
ESTHERVILLE    PTSUNNY   83  72  69 S18G28    29.88S
SIOUX CITY     MOSUNNY   86  72  62 SE17G24   29.81F
SPENCER        MOSUNNY   88  70  55 S22G28    29.86S
$$

ABBREVIATIONS USED IN REMARKS
   TC - TEMPERATURE IN CELSIUS
  WCI - WIND CHILL INDEX
   HX - HEAT INDEX
  VSB - VISIBILITY




USA.gov is the U.S. government's official web portal to all federal, state and local government web resources and services.